TimeEEST,TemperatureF,Dew PointF,Humidity,Sea Level PressureIn,VisibilityMPH,Wind Direction,Wind SpeedMPH,Gust SpeedMPH,PrecipitationIn,Events,Conditions,WindDirDegrees,DateUTC
12:20 AM,48.2,33.8,58,30.12,-9999.0,SW,5.8,-,N/A,,Clear,220,2013-09-25 21:20:00
12:50 AM,50.0,32.0,50,30.12,-9999.0,WSW,15.0,-,N/A,,Clear,240,2013-09-25 21:50:00
1:20 AM,50.0,33.8,54,30.12,-9999.0,West,19.6,-,N/A,,Clear,260,2013-09-25 22:20:00
1:50 AM,50.0,33.8,54,30.12,-9999.0,West,18.4,-,N/A,,Clear,260,2013-09-25 22:50:00
2:20 AM,50.0,33.8,54,30.15,-9999.0,West,17.3,-,N/A,,Clear,260,2013-09-25 23:20:00
2:50 AM,48.2,33.8,58,30.15,-9999.0,SW,9.2,-,N/A,,Clear,230,2013-09-25 23:50:00
3:00 AM,47,34,50,,12,SW,8.1,,,,Partly Cloudy,230,2013-09-26 00:00:00
3:20 AM,50.0,33.8,54,30.15,-9999.0,SSW,6.9,-,N/A,,Clear,210,2013-09-26 00:20:00
3:50 AM,50.0,33.8,54,30.15,-9999.0,WSW,11.5,-,N/A,,Clear,240,2013-09-26 00:50:00
4:20 AM,48.2,33.8,58,30.18,-9999.0,WSW,11.5,-,N/A,,Clear,250,2013-09-26 01:20:00
4:50 AM,46.4,33.8,62,30.18,-9999.0,WSW,11.5,-,N/A,,Clear,250,2013-09-26 01:50:00
5:20 AM,46.4,35.6,66,30.18,-9999.0,WSW,15.0,-,N/A,,Clear,240,2013-09-26 02:20:00
5:50 AM,48.2,35.6,62,30.18,-9999.0,WSW,13.8,-,N/A,,Clear,250,2013-09-26 02:50:00
6:20 AM,46.4,35.6,66,30.18,-9999.0,West,15.0,-,N/A,,Clear,260,2013-09-26 03:20:00
6:50 AM,48.2,35.6,62,30.18,6.2,WSW,11.5,-,N/A,,Scattered Clouds,250,2013-09-26 03:50:00
7:20 AM,50.0,35.6,58,30.21,6.2,SSW,3.5,-,N/A,,Scattered Clouds,210,2013-09-26 04:20:00
7:50 AM,51.8,37.4,58,30.21,6.2,WSW,12.7,-,N/A,,Partly Cloudy,250,2013-09-26 04:50:00
8:20 AM,51.8,35.6,54,30.21,6.2,West,17.3,-,N/A,,Partly Cloudy,260,2013-09-26 05:20:00
8:50 AM,53.6,35.6,51,30.21,6.2,West,16.1,-,N/A,,Partly Cloudy,260,2013-09-26 05:50:00
9:00 AM,53,36,40,,12,West,16.1,,,,Scattered Clouds,260,2013-09-26 06:00:00
9:20 AM,53.6,35.6,51,30.21,6.2,West,15.0,-,N/A,,Partly Cloudy,270,2013-09-26 06:20:00
9:50 AM,55.4,35.6,47,30.21,6.2,West,12.7,-,N/A,,Partly Cloudy,260,2013-09-26 06:50:00
10:20 AM,57.2,35.6,44,30.21,6.2,SW,9.2,20.7,N/A,,Scattered Clouds,230,2013-09-26 07:20:00
10:50 AM,57.2,33.8,41,30.21,6.2,WSW,11.5,-,N/A,,Partly Cloudy,240,2013-09-26 07:50:00
11:20 AM,59.0,32.0,36,30.21,6.2,WSW,13.8,-,N/A,,Partly Cloudy,250,2013-09-26 08:20:00
11:50 AM,59.0,32.0,36,30.21,6.2,West,12.7,-,N/A,,Partly Cloudy,260,2013-09-26 08:50:00
12:20 PM,60.8,30.2,31,30.18,6.2,WSW,12.7,25.3,N/A,,Partly Cloudy,250,2013-09-26 09:20:00
12:50 PM,62.6,28.4,27,30.18,6.2,WSW,13.8,-,N/A,,Partly Cloudy,250,2013-09-26 09:50:00
1:20 PM,62.6,26.6,26,30.18,6.2,WSW,13.8,-,N/A,,Partly Cloudy,250,2013-09-26 10:20:00
1:50 PM,64.4,26.6,24,30.18,6.2,WSW,12.7,-,N/A,,Partly Cloudy,250,2013-09-26 10:50:00
2:20 PM,64.4,26.6,24,30.18,6.2,WSW,11.5,-,N/A,,Partly Cloudy,250,2013-09-26 11:20:00
2:50 PM,64.4,24.8,22,30.15,6.2,West,13.8,-,N/A,,Partly Cloudy,260,2013-09-26 11:50:00
3:00 PM,65,24,11,,12,West,13.8,,,,Scattered Clouds,260,2013-09-26 12:00:00
3:20 PM,66.2,23.0,19,30.15,6.2,West,17.3,-,N/A,,Partly Cloudy,260,2013-09-26 12:20:00
3:50 PM,64.4,23.0,21,30.15,6.2,WSW,13.8,-,N/A,,Partly Cloudy,240,2013-09-26 12:50:00
4:20 PM,64.4,21.2,19,30.15,6.2,WSW,13.8,-,N/A,,Partly Cloudy,250,2013-09-26 13:20:00
4:50 PM,64.4,19.4,18,30.15,-9999.0,West,12.7,-,N/A,,Clear,270,2013-09-26 13:50:00
5:20 PM,64.4,17.6,16,30.15,-9999.0,West,12.7,-,N/A,,Clear,270,2013-09-26 14:20:00
5:50 PM,60.8,21.2,22,30.15,-9999.0,WNW,10.4,-,N/A,,Clear,290,2013-09-26 14:50:00
6:20 PM,55.4,23.0,29,30.18,-9999.0,West,6.9,-,N/A,,Clear,270,2013-09-26 15:20:00
6:50 PM,55.4,23.0,29,30.18,-9999.0,West,5.8,-,N/A,,Clear,270,2013-09-26 15:50:00
7:20 PM,50.0,23.0,35,30.18,-9999.0,SW,6.9,-,N/A,,Clear,230,2013-09-26 16:20:00
7:50 PM,48.2,21.2,34,30.18,-9999.0,SW,4.6,-,N/A,,Clear,220,2013-09-26 16:50:00
8:20 PM,46.4,23.0,40,30.18,-9999.0,Variable,2.3,-,N/A,,Clear,0,2013-09-26 17:20:00
8:50 PM,50.0,21.2,32,30.18,-9999.0,WSW,4.6,-,N/A,,Clear,240,2013-09-26 17:50:00
9:00 PM,49,22,21,,12,WSW,4.6,,,,,240,2013-09-26 18:00:00
9:20 PM,48.2,19.4,32,30.18,-9999.0,SW,3.5,-,N/A,,Clear,220,2013-09-26 18:20:00
9:50 PM,44.6,23.0,43,30.18,-9999.0,Calm,Calm,-,N/A,,Clear,0,2013-09-26 18:50:00
10:20 PM,44.6,21.2,39,30.18,-9999.0,SW,3.5,-,N/A,,Clear,220,2013-09-26 19:20:00
10:50 PM,37.4,23.0,56,30.18,-9999.0,SSE,4.6,-,N/A,,Clear,150,2013-09-26 19:50:00
11:20 PM,37.4,24.8,60,30.18,-9999.0,SE,3.5,-,N/A,,Clear,140,2013-09-26 20:20:00
11:50 PM,37.4,23.0,56,30.18,-9999.0,SSW,3.5,-,N/A,,Clear,210,2013-09-26 20:50:00